Location: Sternwarte Hubelmatt
(47.0367°N, 8.3053°E)
Time: 21:29:00
(UTC+01:00)

Tiangong - Visible Passes

Search period start: 18 January 2026 00:00
Search period end: 28 January 2026 00:00
Orbit: 378 x 393 km, 41.5° (Epoch: 18 January)

Date Brightness Start Highest point End Pass type
(mag) Time Alt. Az. Time Alt. Az. Time Alt. Az.
18 Jan 1.0 06:13:53 10° SSE 06:14:28 10° SSE 06:15:03 10° SE visible
19 Jan 0.3 06:49:05 10° SSW 06:51:32 20° SSE 06:53:59 10° ESE visible
20 Jan 0.4 05:51:52 15° S 05:52:24 15° SSE 05:54:22 10° ESE visible
20 Jan -0.3 07:25:54 10° WSW 07:28:43 28° S 07:31:32 10° ESE visible
21 Jan -0.3 06:27:46 16° SW 06:29:28 25° S 06:32:11 10° ESE visible
22 Jan 0.5 05:31:17 17° SE 05:31:17 17° SE 05:32:41 10° ESE visible
22 Jan -0.5 07:03:47 10° WSW 07:06:37 29° S 07:09:28 10° ESE visible
23 Jan -0.7 06:06:57 28° S 06:07:18 28° S 06:10:07 10° ESE visible
24 Jan 1.2 05:10:18 12° ESE 05:10:18 12° ESE 05:10:39 10° ESE visible
24 Jan -0.6 06:42:31 16° WSW 06:44:23 28° S 06:47:10 10° SE visible
25 Jan -0.2 05:45:48 25° SSE 05:45:48 25° SSE 05:47:49 10° ESE visible
25 Jan 0.0 07:19:01 10° WSW 07:21:21 19° SSW 07:23:41 10° SSE visible
26 Jan -0.5 06:21:17 22° SSW 06:21:58 23° SSW 06:24:34 10° SE visible
27 Jan 0.7 05:24:31 15° SE 05:24:31 15° SE 05:25:16 10° SE visible
27 Jan 0.3 06:57:06 10° SW 06:58:46 14° SSW 07:00:28 10° S visible
